Location: Unspecified
(38.5482°N, 1.4063°W)
Time: 05:21:31
(UTC+00:00)

ISS - Visible Passes

Search period start: 28 May 2023 00:00
Search period end: 07 June 2023 00:00
Orbit: 412 x 420 km, 51.6° (Epoch: 28 May)

Date Brightness Start Highest point End Pass type
(mag) Time Alt. Az. Time Alt. Az. Time Alt. Az.
28 May -3.0 20:47:51 10° NW 20:51:06 44° NE 20:52:34 26° E visible
28 May -0.8 22:25:12 10° W 22:25:27 11° W 22:25:27 11° W visible
29 May -2.2 19:59:26 10° NNW 20:02:22 28° NNE 20:05:19 10° E visible
29 May -2.4 21:36:04 10° WNW 21:38:40 31° WSW 21:38:40 31° WSW visible
30 May -3.6 20:47:16 10° WNW 20:50:34 62° SW 20:51:55 31° SSE visible
31 May -3.7 19:58:36 10° NW 20:01:57 71° NE 20:05:13 10° ESE visible
31 May -1.1 21:37:15 10° WSW 21:38:06 11° SW 21:38:06 11° SW visible
01 Jun -1.8 20:47:14 10° W 20:49:46 20° SW 20:51:27 14° SSW visible
02 Jun -2.6 19:58:07 10° WNW 20:01:13 36° SW 20:04:18 10° SSE visible
04 Jun -1.1 19:58:45 10° WSW 20:00:12 12° SW 20:01:38 10° SSW visible
